STARLINK-36308, 68543

Orbit data source: Space-Track

STARLINK-36308, 68543 is a payload satellite owned by SpaceX/Seattle (US) in LEO that was launched on Thu, 02 Apr 2026 UTC via an FALCON 9 launch vehicle from the Air Force Eastern Test Range (AFETR). Payload-class satellites include a variety of spacecraft equipped with specific instruments for various scientific and technological missions. These include communications satellites like Starlink; space stations such as the ISS; scientific satellites like the Hubble; Earth observation satellites from companies like Planet Labs, Umbra, and HawkEye 360; GPS; miniature CubeSats for education and research; and military/defense satellites.

Loading next visibility...
Identifier
68543, 2026-070B
Orbit
LEO
Country
Flag of USUS
Related business
Manufacturer
SpaceX/Seattle
Mission
Operational spacecraft
Bus & Motor
STARLINK V2MO, Unknown motor
Mass
575 kg wet, ~530 kg dry
Launch date (UTC)
2026-04-02 (2 months ago)
Launch vehicle
FALCON 9
Launch site
Air Force Eastern Test Range (AFETR)
Object type
Payload
Rocket body
Debris
Shape & HBR
Unknown shape, 14.5 m
Radar Cross Section
RCS unknown

Expand to show TLE details & history
Last TLE update: 16 hours ago

TLE from 16 hours ago
0 STARLINK-36308
1 68543U 26070B   26145.34282357  .00017145  00000-0  51702-3 0  9999
2 68543  53.1609   6.3311 0000776  89.4748 270.6343 15.34423044  8290
Epoch: 2026-05-25T08:13Z
TLE epoch observation values (Epoch: 2026-05-25T08:13:39.956Z)
Latitude
-0.00006°
Longitude
-0.01741°
Altitude
463.53 km
Speed
7.636 km/s
True Right ascension
00h 25m 19s
True Declination
0° 00' 00"
Sunlit
Object was in daylight at epoch
Visualization orbit readout
Latitude
Unknown
Longitude
Unknown
Altitude
Unknown
Speed
Unknown
Apparent Right ascension
Unknown
Apparent Declination
Unknown
Sunlit
N/A
Visualization observer readout
Local Sidereal Time
09:22:18
Azimuth
Unknown
Elevation
Unknown
Doppler factor
Unknown
Orbital elements
Apogee altitude
463.422 km
Perigee altitude
462.361 km
Semi-major axis
6,841.028 km
Eccentricity
0.00008
Inclination
53.1609°
RAAN
6.3311°
Arg. of periapsis
89.4748°
True anomaly
270.62541°
Mean anomaly
270.6343°
Eccentric anomaly
270.62985°
Mean motion
3.83585 °/min
Orbital period
93.85 mins
BSTAR
0.00051702
Loading maneuver chart data...
Computing Atmospheric mass density...
Loading historical data...
Loading historical data...
Loading historical data...
Loading historical data...
Loading historical data...
Loading historical data...
Loading historical data...

Documentation

Showing up to 5 results
|